Wind_Speed
11 12 12 12 13 13 13 13 13 14 14 14 15 15 15 15 15 14 14 14 14 14 14 14 14 15 15 14 14 14 14 14 14 14 14 14 14 14 14 14 14 15 16
13 13 13 13 13 14 14 14 14 14 14 15 15 15 15 15 15 15 15 14 14 14 14 15 15 15 15 15 15 15 15 15 15 15 15 14 14 15 15 15 15 15 15
13 13 13 14 14 15 15 15 16 15 15 16 16 16 16 16 16 16 16 16 16 16 16 16 16 17 17 17 16 16 16 16 16 16 16 15 15 15 15 15 16 16 15
14 14 14 15 15 16 17 16 16 16 17 17 18 17 17 17 17 18 18 18 18 19 18 18 18 18 18 18 17 17 16 16 16 16 17 17 17 17 17 16 16 16 16
15 15 16 16 16 16 17 17 17 17 18 18 18 18 18 18 18 19 19 19 20 20 20 19 19 19 18 18 17 17 17 16 16 17 17 18 17 17 17 17 17 17 17
16 16 17 17 17 17 17 17 18 18 19 19 19 19 19 19 19 19 20 20 21 21 20 19 19 19 19 18 18 18 18 17 16 16 17 18 18 18 18 18 17 17 16
18 18 18 18 18 18 18 18 18 19 19 19 19 20 20 20 20 20 20 20 20 21 20 19 19 19 19 19 19 19 18 18 18 17 17 18 18 19 19 18 18 17 16
18 18 19 19 18 18 19 19 19 19 19 19 20 20 20 20 20 20 20 20 21 20 20 19 19 19 19 19 19 19 18 19 19 19 19 19 19 19 20 20 19 18 17
18 19 19 19 19 19 19 20 20 19 19 20 21 21 21 21 21 21 21 21 21 21 21 20 20 19 19 19 20 19 19 20 20 20 20 20 19 19 20 20 19 18 18
19 19 19 20 20 20 20 20 20 20 20 21 22 22 21 21 21 22 21 21 22 22 22 21 21 20 20 20 21 21 21 21 21 20 20 20 20 20 20 20 20 19 20
19 19 19 19 20 20 20 20 20 21 21 21 21 21 21 21 21 21 22 22 22 22 22 22 21 21 21 21 22 22 22 22 22 22 22 22 21 21 21 21 21 21 22
19 19 20 20 20 20 20 20 20 21 21 21 21 21 21 22 21 22 22 22 23 23 22 22 22 22 22 22 22 22 23 24 23 23 23 23 23 23 23 23 24 24 24
20 20 20 20 20 21 21 21 21 20 21 21 21 21 21 21 22 22 23 23 23 23 23 23 24 23 23 23 23 23 24 24 24 25 24 24 24 24 25 25 25 25 26
22 22 21 21 20 20 21 21 21 21 21 21 21 21 21 21 22 23 23 23 23 23 24 24 25 25 25 24 24 24 25 25 25 25 24 24 24 24 25 26 26 27 27
23 23 22 21 21 21 22 22 22 22 22 22 22 22 22 22 22 23 23 24 24 24 24 25 25 26 26 26 26 26 26 26 26 25 25 25 25 25 26 26 26 26 27
23 23 24 23 22 22 22 23 23 23 24 24 23 24 24 23 23 24 24 25 25 25 25 25 26 27 28 27 27 27 27 27 27 27 27 26 26 27 27 26 27 27 27
22 22 22 23 23 23 23 24 24 24 25 25 25 25 25 25 24 24 24 24 25 25 26 26 26 27 27 28 28 28 28 27 27 27 27 28 27 27 27 27 27 27 27
22 22 22 23 24 24 24 25 25 25 26 26 25 25 25 25 25 25 25 25 25 26 26 27 27 28 28 28 28 29 29 29 28 28 28 28 28 28 27 27 27 27 27
24 24 24 25 25 24 25 25 25 26 26 26 26 26 26 25 25 26 26 26 27 27 27 27 28 28 29 29 29 30 30 30 30 30 29 29 29 28 28 28 28 28 27
24 24 25 25 25 25 25 25 25 25 26 26 26 26 26 26 27 27 27 28 27 27 28 29 29 29 29 30 30 31 31 31 30 30 30 30 30 29 29 29 29 29 28
25 25 25 25 25 26 26 27 27 27 27 27 27 27 28 28 28 28 29 29 29 29 29 29 29 30 30 30 31 31 32 32 31 31 30 30 30 29 29 29 29 29 29
26 26 26 25 26 26 27 27 28 28 28 28 28 28 29 29 29 29 30 30 30 29 29 29 30 30 30 31 31 31 31 31 31 31 30 30 29 30 30 30 30 29 29
26 26 27 27 27 28 28 28 28 29 29 29 29 29 29 29 30 30 31 31 31 30 30 30 31 31 31 32 31 31 31 31 31 30 30 30 30 30 31 31 30 30 29
28 28 28 28 28 29 29 29 30 30 30 30 30 30 30 30 30 31 31 31 32 32 31 31 31 31 31 31 31 31 31 31 32 31 30 29 28 29 30 30 30 29 29
28 29 29 29 29 30 30 31 31 31 31 31 31 31 31 31 31 31 32 32 32 32 32 32 31 31 30 30 30 30 30 30 30 30 29 29 28 28 28 29 29 29 29
29 29 30 30 30 31 31 32 33 33 32 32 32 31 31 32 32 32 32 32 32 31 31 31 31 31 31 30 30 30 30 30 30 29 29 29 28 28 27 28 29 30 30
Wind_Direction
267 269 272 274 276 278 279 281 282 284 283 280 280 281 281 280 279 282 283 283 285 286 282 282 282 282 282 282 279 277 278 277 274 272 272 271 270 269 270 271 271 272 273
270 271 272 274 275 277 280 282 283 284 282 281 283 283 281 281 279 280 285 283 281 283 285 281 280 280 280 280 278 276 276 277 275 272 271 270 270 270 270 272 272 272 271
270 272 272 275 277 278 280 282 283 284 284 284 285 282 279 280 280 282 283 282 282 283 282 281 280 280 280 280 279 278 277 276 274 271 270 270 269 269 271 271 271 270 270
271 275 277 278 277 277 279 281 283 285 286 286 286 283 283 281 280 281 281 282 281 280 279 280 283 281 279 278 278 277 277 275 273 271 269 269 269 269 270 271 272 270 271
273 275 278 279 278 278 280 281 283 285 287 286 286 284 284 282 281 281 281 281 281 281 280 279 280 280 279 276 275 276 275 275 273 271 270 269 270 270 270 270 271 271 272
274 277 279 279 279 280 281 281 283 285 286 287 286 284 283 283 282 282 281 281 282 282 280 277 277 278 277 274 273 273 273 274 273 272 272 271 271 270 270 270 271 272 272
276 278 279 280 282 282 281 281 282 284 285 286 285 285 285 284 283 281 280 281 282 281 278 276 275 276 276 275 274 273 273 273 272 273 275 275 274 271 268 268 268 268 268
276 278 280 280 281 281 280 282 284 284 284 285 285 285 286 286 285 284 282 281 282 280 276 275 273 274 275 275 275 273 273 273 273 273 273 274 274 271 267 266 264 264 266
278 280 280 280 280 282 282 283 284 284 284 284 284 285 286 285 283 283 282 283 281 280 277 275 275 274 272 274 276 274 272 272 272 273 273 272 272 272 269 265 262 263 264
280 281 281 280 280 281 282 283 285 285 285 284 284 285 285 284 283 283 282 282 280 279 277 276 275 273 273 274 275 275 273 273 274 274 274 273 271 271 268 264 264 265 266
280 281 281 282 281 282 282 283 284 285 285 284 284 284 285 284 284 286 284 282 279 277 277 275 275 275 275 276 276 275 274 274 275 275 274 274 272 270 266 264 265 266 266
280 281 282 281 281 282 283 283 286 286 285 284 284 284 284 285 286 285 284 281 280 278 277 276 276 276 276 277 277 276 276 275 275 275 276 274 272 270 266 265 266 267 267
281 281 282 281 280 281 281 283 286 287 287 285 285 286 287 284 285 284 283 281 280 278 276 275 275 275 276 277 277 276 276 275 275 275 276 276 273 272 269 267 267 268 268
279 280 280 281 282 282 282 282 285 287 287 288 287 286 287 285 284 283 283 281 282 280 276 275 275 276 276 277 277 278 279 277 275 275 274 274 274 272 271 269 268 268 267
277 279 280 280 281 281 282 282 284 286 288 289 289 288 287 286 285 283 283 283 283 282 278 276 277 277 278 277 278 279 280 279 277 275 274 275 275 273 272 269 269 269 269
275 278 280 282 282 281 281 282 283 284 286 289 290 290 288 286 286 285 284 284 283 282 280 278 277 277 277 277 279 279 279 278 277 275 275 275 276 274 274 271 269 269 270
277 278 279 281 282 282 282 281 282 283 284 286 288 288 287 286 286 285 284 284 284 282 282 279 278 278 277 277 278 279 278 278 277 276 275 275 275 274 274 272 270 270 271
280 279 279 279 280 282 283 282 282 283 283 284 286 287 287 286 285 284 283 283 284 284 283 282 280 279 278 277 277 277 277 277 277 276 276 277 276 275 274 273 271 271 271
282 281 280 280 280 280 281 281 283 283 283 284 284 284 285 285 284 284 283 282 283 283 283 283 281 279 279 278 277 276 277 277 276 276 276 276 276 274 272 272 271 270 270
283 284 283 281 281 281 280 281 282 283 283 284 285 284 283 283 284 284 284 283 282 282 283 283 280 279 278 277 277 277 277 276 276 275 274 274 273 272 271 270 271 269 269
285 285 284 282 282 282 281 281 281 283 284 285 287 285 283 283 284 285 284 283 282 282 283 283 282 280 279 278 278 278 277 277 276 275 273 273 273 272 271 269 270 270 269
285 283 283 283 283 283 283 283 284 284 285 286 287 286 284 283 283 284 284 283 282 283 282 282 282 282 280 278 278 278 277 275 275 274 273 273 272 271 270 270 269 269 269
283 282 282 282 282 283 284 284 285 285 286 287 287 286 285 283 283 283 283 283 283 283 283 282 282 281 280 278 278 277 276 275 275 273 273 272 271 270 270 270 269 267 267
283 283 282 282 281 282 283 284 285 285 285 286 286 285 285 283 282 283 283 284 284 283 283 282 282 281 281 279 277 276 275 274 273 273 273 273 273 271 269 268 267 267 267
283 283 282 282 282 281 283 283 283 284 285 286 286 286 285 284 283 283 282 283 284 283 283 282 281 281 280 279 278 276 275 274 274 273 272 273 274 273 271 269 268 268 269
283 284 284 283 283 282 282 282 282 283 283 284 285 285 286 285 285 284 284 285 285 284 284 283 282 281 280 279 280 280 277 276 276 274 272 272 272 271 272 270 269 269 269
Height
5835 5836 5836 5836 5837 5837 5837 5837 5837 5837 5836 5836 5836 5836 5836 5836 5836 5835 5835 5835 5835 5835 5835 5835 5835 5835 5835 5835 5834 5835 5834 5835 5835 5835 5835 5835 5835 5835 5836 5836 5837 5837 5837
5832 5833 5833 5834 5834 5834 5834 5834 5834 5834 5833 5833 5833 5832 5832 5832 5832 5832 5832 5832 5832 5832 5832 5832 5832 5832 5831 5831 5831 5831 5831 5831 5831 5831 5832 5832 5833 5832 5832 5833 5833 5834 5834
5830 5830 5830 5831 5831 5831 5831 5831 5830 5830 5830 5829 5829 5829 5829 5829 5829 5829 5829 5828 5828 5828 5828 5828 5828 5828 5827 5827 5827 5827 5827 5827 5827 5827 5828 5828 5829 5829 5829 5829 5830 5830 5831
5827 5827 5827 5827 5827 5827 5827 5828 5827 5827 5826 5826 5826 5825 5825 5825 5825 5825 5825 5824 5824 5823 5823 5823 5823 5823 5822 5822 5822 5822 5822 5822 5822 5823 5823 5824 5824 5825 5825 5826 5826 5826 5826
5824 5824 5824 5824 5824 5824 5824 5824 5824 5823 5823 5822 5822 5821 5821 5820 5820 5820 5820 5819 5819 5818 5818 5818 5818 5818 5818 5818 5818 5818 5818 5818 5818 5818 5819 5819 5819 5820 5820 5821 5822 5822 5822
5820 5820 5820 5820 5820 5820 5820 5820 5820 5819 5818 5818 5817 5817 5816 5816 5815 5815 5814 5814 5814 5813 5813 5813 5813 5813 5813 5813 5813 5813 5814 5814 5814 5814 5814 5814 5814 5815 5815 5816 5817 5818 5818
5817 5817 5817 5817 5816 5816 5816 5816 5815 5815 5814 5814 5813 5812 5812 5811 5810 5810 5809 5809 5808 5808 5808 5807 5807 5807 5808 5808 5808 5809 5809 5809 5809 5809 5809 5809 5809 5809 5810 5811 5812 5813 5814
5813 5813 5812 5812 5812 5812 5811 5811 5811 5810 5810 5809 5809 5808 5807 5806 5805 5805 5804 5804 5803 5803 5803 5802 5802 5803 5803 5803 5803 5804 5804 5804 5804 5804 5804 5804 5803 5804 5804 5805 5807 5808 5809
5809 5808 5808 5808 5808 5807 5807 5807 5806 5806 5805 5804 5804 5803 5802 5801 5801 5800 5799 5798 5798 5798 5797 5797 5797 5798 5798 5798 5798 5798 5799 5799 5799 5799 5798 5798 5798 5799 5799 5800 5801 5803 5803
5804 5804 5803 5803 5803 5803 5802 5802 5801 5801 5800 5799 5798 5798 5797 5796 5795 5795 5794 5793 5793 5792 5792 5792 5792 5793 5793 5793 5793 5793 5793 5793 5793 5793 5793 5793 5793 5793 5793 5794 5795 5797 5798
5800 5799 5799 5799 5798 5798 5798 5797 5797 5796 5795 5794 5793 5792 5791 5791 5790 5789 5788 5788 5787 5787 5787 5787 5787 5787 5788 5788 5788 5787 5787 5787 5787 5787 5787 5787 5787 5787 5788 5788 5789 5790 5791
5795 5794 5794 5794 5794 5793 5793 5792 5792 5791 5790 5789 5788 5787 5786 5785 5784 5783 5783 5782 5781 5781 5781 5781 5781 5781 5782 5782 5782 5781 5781 5781 5781 5781 5781 5781 5781 5781 5782 5782 5783 5784 5785
5790 5789 5789 5789 5789 5788 5788 5787 5786 5785 5784 5783 5782 5781 5780 5779 5778 5777 5776 5776 5775 5775 5775 5775 5775 5775 5776 5776 5775 5775 5775 5774 5774 5774 5774 5774 5774 5774 5775 5775 5776 5777 5778
5784 5784 5784 5784 5783 5783 5782 5782 5781 5780 5778 5777 5775 5775 5774 5772 5772 5771 5770 5769 5769 5769 5768 5768 5768 5768 5769 5769 5769 5768 5768 5768 5767 5767 5767 5767 5767 5767 5767 5768 5769 5769 5770
5778 5778 5778 5778 5778 5777 5777 5776 5775 5774 5772 5771 5770 5769 5768 5766 5765 5765 5764 5763 5762 5762 5761 5761 5761 5761 5761 5761 5761 5761 5761 5760 5760 5760 5760 5760 5760 5760 5760 5760 5761 5761 5762
5773 5772 5772 5772 5771 5771 5770 5770 5769 5768 5766 5765 5764 5762 5761 5760 5759 5758 5758 5757 5756 5755 5755 5754 5754 5754 5754 5754 5753 5753 5753 5752 5752 5752 5752 5752 5751 5752 5752 5752 5752 5753 5754
5767 5766 5766 5766 5765 5764 5764 5763 5762 5761 5760 5759 5757 5756 5755 5754 5753 5752 5751 5750 5749 5748 5748 5747 5747 5746 5746 5746 5745 5745 5744 5744 5744 5744 5744 5744 5743 5743 5743 5743 5744 5745 5745
5760 5760 5760 5759 5758 5758 5757 5756 5755 5754 5753 5752 5750 5749 5748 5747 5746 5744 5743 5743 5742 5741 5740 5740 5739 5738 5738 5738 5737 5736 5736 5736 5735 5735 5735 5735 5735 5735 5735 5735 5736 5736 5737
5754 5753 5753 5752 5751 5751 5750 5749 5748 5746 5745 5744 5743 5742 5740 5739 5738 5737 5736 5735 5734 5733 5732 5732 5731 5730 5730 5729 5729 5728 5727 5727 5727 5726 5726 5726 5726 5726 5726 5726 5727 5728 5728
5747 5747 5746 5745 5744 5744 5742 5741 5740 5739 5738 5736 5735 5734 5732 5731 5730 5729 5728 5727 5726 5725 5724 5723 5722 5722 5721 5720 5720 5719 5718 5718 5718 5717 5717 5716 5717 5717 5717 5717 5718 5719 5719
5741 5740 5739 5738 5737 5736 5735 5734 5732 5731 5730 5728 5727 5725 5724 5723 5722 5721 5719 5718 5717 5716 5715 5715 5714 5713 5712 5711 5710 5709 5709 5708 5708 5708 5707 5707 5707 5707 5707 5708 5708 5709 5710
5734 5733 5732 5731 5730 5729 5727 5726 5724 5723 5722 5720 5719 5717 5716 5715 5713 5712 5711 5709 5708 5707 5706 5705 5704 5704 5703 5702 5701 5700 5699 5698 5698 5698 5698 5698 5698 5698 5698 5698 5699 5700 5700
5726 5725 5724 5723 5722 5721 5719 5718 5717 5715 5713 5712 5710 5709 5707 5706 5705 5703 5702 5700 5699 5698 5697 5696 5695 5694 5693 5692 5691 5690 5689 5688 5688 5688 5688 5688 5688 5688 5688 5689 5690 5690 5691
5718 5717 5716 5715 5714 5713 5711 5710 5708 5707 5705 5704 5702 5700 5699 5697 5695 5694 5693 5691 5690 5688 5687 5686 5685 5684 5683 5682 5681 5680 5679 5678 5678 5678 5678 5678 5678 5678 5678 5679 5680 5681 5682
5710 5709 5707 5706 5705 5704 5703 5701 5699 5698 5696 5695 5693 5691 5689 5687 5686 5685 5683 5681 5680 5678 5677 5676 5674 5673 5673 5672 5670 5669 5669 5669 5668 5668 5668 5668 5668 5669 5669 5670 5671 5671 5672
5701 5700 5698 5697 5696 5695 5693 5692 5690 5688 5687 5685 5684 5682 5680 5678 5677 5675 5673 5671 5670 5668 5666 5665 5664 5663 5662 5661 5660 5659 5659 5658 5658 5658 5658 5659 5659 5660 5660 5661 5662 5662 5663